RH
50 52 53 51 51 58 71 65 66 66 60 59 60 58 62 60 62 65 63 55 60 60 58 56 60 59 44 36 37 37 39 38 40 33 38 46 56 59 53 50 73 43 52
48 54 53 52 53 50 56 56 59 72 59 63 62 60 59 58 63 64 62 54 62 60 58 59 57 45 63 59 44 56 49 50 46 57 52 43 60 56 60 61 40 40 40
50 50 52 53 52 53 53 56 57 61 62 61 66 71 67 66 63 62 62 60 57 57 55 56 56 57 62 53 55 49 43 46 61 65 52 45 47 46 69 62 54 60 40
50 50 56 56 54 53 54 57 56 62 63 62 62 63 64 61 66 65 62 62 60 56 57 58 57 58 61 67 66 67 55 57 72 59 63 44 58 59 63 70 51 43 48
59 59 60 60 59 59 60 62 61 63 63 65 63 62 62 58 50 62 64 66 66 61 59 62 58 66 88 88 65 73 78 78 76 79 67 70 81 49 60 78 72 45 50
64 66 62 66 68 70 71 66 70 68 68 70 70 66 66 51 95 93 86 61 69 73 67 64 64 83 85 95 95 96 90 87 93 94 72 92 79 66 55 74 84 90 55
70 83 81 81 85 76 73 79 73 71 67 69 67 67 66 65 93 94 92 63 60 68 71 77 67 57 78 73 87 88 87 87 91 78 87 76 87 89 73 71 64 53 44
83 73 88 76 83 80 80 81 91 84 78 71 66 69 71 74 91 90 87 75 66 67 69 74 74 72 68 66 64 72 74 71 71 47 69 69 70 65 66 58 67 66 49
94 79 78 73 87 82 89 82 91 88 90 84 73 74 73 72 95 99 93 71 68 77 74 70 71 71 89 82 66 74 74 68 74 80 78 77 76 76 71 43 47 45 38
81 83 93 94 97 96 93 96 98 99 100 98 84 73 89 74 99 100 95 76 79 66 74 75 89 73 84 86 73 67 72 65 55 57 53 59 57 57 62 55 35 32 29
96 90 88 86 93 91 91 93 95 98 99 99 97 96 94 90 93 98 100 93 82 72 62 62 61 92 91 94 86 76 69 68 66 54 48 42 42 42 43 52 52 38 30
83 86 89 96 96 98 98 99 99 99 99 99 99 99 99 98 100 100 98 96 94 96 98 99 99 97 96 93 89 84 79 70 62 61 66 75 70 54 50 42 55 51 51
96 97 96 95 97 90 96 99 100 99 99 99 99 99 99 98 99 99 99 99 96 98 97 97 96 95 94 92 87 84 80 83 92 94 82 55 48 43 50 48 50 59 58
94 92 90 93 96 95 98 97 99 99 98 98 98 98 98 98 94 80 89 95 95 92 90 98 96 95 94 94 89 83 69 84 77 52 45 46 54 37 37 35 34 32 28
97 94 96 95 97 96 98 99 99 100 98 97 89 86 83 69 66 80 76 71 85 91 79 77 83 86 93 89 67 61 53 53 51 62 50 40 32 31 33 29 32 30 30
98 96 99 99 99 99 99 99 96 97 94 94 89 76 63 85 87 92 96 96 91 88 85 95 95 89 80 68 59 63 60 46 49 47 32 35 30 30 31 31 32 31 31
82 89 87 88 84 98 99 96 96 92 88 92 92 93 90 92 94 97 97 95 95 94 95 85 75 68 66 46 54 54 48 59 62 48 31 32 31 31 31 30 31 31 32
70 87 72 82 83 76 73 76 70 72 78 67 75 73 86 86 90 91 92 89 69 66 72 64 60 64 64 66 61 54 58 48 49 43 54 46 35 30 31 33 34 36 35
47 42 42 42 46 61 65 63 71 70 70 64 60 65 75 88 90 85 81 58 53 57 61 49 51 56 55 52 47 51 56 50 41 34 33 34 33 31 34 32 38 56 54
50 78 56 31 35 34 39 43 45 50 50 46 40 36 48 57 54 54 52 58 46 41 39 42 38 40 42 44 42 39 36 36 39 33 32 33 34 33 33 35 34 36 39
30 39 62 36 29 26 28 29 31 30 27 28 27 38 64 35 34 38 40 44 41 37 39 38 41 42 45 45 42 39 33 30 32 33 33 33 35 32 37 38 36 38 39
27 29 29 30 34 35 30 29 28 26 25 25 21 33 70 32 25 29 33 35 35 37 35 41 40 39 39 43 43 35 32 32 33 33 34 33 35 35 36 36 36 36 36
30 29 29 29 32 49 37 29 27 27 26 25 22 21 24 24 27 29 31 32 35 35 35 38 41 37 39 38 38 36 32 30 32 33 34 35 35 34 34 33 32 32 32
30 27 27 27 30 28 28 30 28 40 28 25 24 24 24 26 28 31 30 31 33 34 34 35 36 36 39 36 34 32 30 30 32 33 36 35 34 42 31 30 29 31 30
33 31 29 28 27 28 26 26 26 26 26 26 25 26 26 26 27 27 28 29 30 32 33 33 33 35 37 39 31 30 45 58 41 44 37 39 38 44 36 33 33 32 35
37 37 34 29 29 27 26 27 27 28 27 26 26 27 27 27 28 28 28 29 30 30 31 30 31 35 36 34 34 46 76 72 50 74 39 38 39 39 38 41 42 38 38
Wind_Speed
15 14 13 12 12 10 9 9 9 8 8 9 8 9 9 10 9 8 8 7 8 8 7 6 7 6 8 5 5 5 5 5 7 6 1 5 2 5 5 2 9 10 11
15 13 13 12 11 11 10 9 8 8 9 9 9 9 10 10 11 10 10 9 9 10 9 8 9 8 8 8 8 7 8 6 7 6 5 3 1 0 3 1 3 10 11
14 14 14 13 13 12 11 10 9 8 9 10 10 10 10 9 11 12 11 10 10 10 9 9 9 9 9 9 6 8 6 5 3 5 7 5 2 1 4 4 4 10 9
13 14 13 14 14 13 12 11 10 9 9 9 8 8 8 8 9 10 11 10 10 10 10 10 10 9 9 9 7 8 8 6 6 7 6 3 3 4 4 5 5 2 7
11 12 13 12 12 12 12 12 11 10 10 9 9 8 8 8 8 10 10 10 10 11 9 10 10 5 7 2 6 6 7 7 6 6 8 2 6 3 1 5 5 5 3
10 11 11 11 12 12 12 13 12 12 11 10 10 10 9 8 8 2 6 8 9 10 10 10 8 5 4 4 5 7 6 6 5 4 5 4 3 3 1 3 5 5 5
9 8 8 8 9 12 12 12 12 13 11 11 11 11 11 10 6 4 3 9 9 9 11 8 8 5 4 6 8 11 8 5 4 5 5 0 2 4 3 3 3 2 4
7 10 7 9 9 11 12 12 7 10 12 10 10 9 9 5 8 3 4 8 8 8 7 7 9 8 7 7 7 6 8 10 8 0 4 5 5 1 3 2 4 3 3
6 10 10 6 8 12 10 11 6 6 2 6 6 6 7 6 8 5 6 8 8 7 6 7 7 8 9 5 8 10 9 8 13 16 15 13 13 13 9 4 4 5 4
7 8 2 2 6 6 7 9 4 6 7 3 2 1 5 5 7 3 8 7 8 6 5 3 12 2 6 7 7 9 9 8 10 9 9 8 8 11 15 10 4 4 2
4 4 5 6 9 8 9 6 7 6 6 7 6 3 4 5 4 2 7 5 4 5 5 4 5 7 5 3 3 5 7 8 6 8 5 6 7 8 8 8 9 8 4
1 5 3 6 6 5 7 7 6 4 7 5 6 4 4 3 4 6 7 8 7 7 6 4 5 14 13 9 7 10 14 8 5 6 5 3 3 4 5 7 9 9 8
8 10 9 7 8 6 7 6 5 5 5 3 3 6 4 3 5 9 8 9 10 7 6 10 12 14 13 11 11 10 8 4 4 4 4 4 4 5 6 5 6 6 7
10 10 8 8 8 8 6 5 4 5 5 4 3 5 3 3 4 6 6 7 13 11 15 6 9 11 11 8 5 4 4 3 2 5 6 5 4 4 2 1 3 3 2
8 8 7 6 7 8 8 6 5 6 4 4 4 2 1 4 5 6 5 6 5 6 9 6 5 5 5 4 4 4 6 4 5 3 4 5 5 4 3 3 2 2 2
7 6 5 5 5 5 5 6 16 9 13 12 10 5 4 8 8 7 8 9 13 8 4 4 3 4 4 4 5 4 4 5 4 2 4 3 4 4 4 3 2 2 3
9 8 6 6 6 5 4 6 7 4 11 10 8 10 8 4 3 9 11 11 8 4 2 3 3 3 5 5 4 3 3 2 2 3 5 5 4 4 3 3 2 1 2
10 7 6 5 5 4 5 6 5 7 7 6 5 3 4 8 7 7 10 9 6 6 4 6 5 3 3 3 4 3 4 3 3 3 3 2 1 4 3 2 1 1 1
7 6 6 5 4 4 5 6 5 5 4 4 3 1 5 5 5 5 4 6 6 5 4 6 7 5 4 6 6 6 5 4 5 4 4 4 3 2 2 3 5 5 5
5 6 1 6 6 4 4 5 5 5 5 6 5 6 7 7 7 6 7 5 5 5 5 7 6 7 6 6 6 7 6 6 6 5 3 4 3 2 3 3 2 1 1
5 6 2 4 3 4 4 4 4 3 3 4 5 5 4 5 5 6 6 5 5 5 5 5 4 5 5 5 5 5 5 6 5 5 5 3 3 3 3 2 2 2 1
3 4 4 4 5 5 4 3 3 4 4 4 3 5 3 7 4 4 5 5 5 4 5 5 5 6 6 6 7 7 7 6 6 5 5 5 5 4 3 3 4 3 2
4 4 4 3 4 3 5 5 5 5 4 4 4 6 7 6 4 4 4 5 5 5 5 5 5 5 5 6 7 6 6 6 6 6 6 6 5 5 5 5 4 4 3
5 6 5 5 5 6 5 5 5 3 4 5 6 5 5 5 4 4 5 5 5 6 6 6 5 7 7 7 7 7 7 6 6 7 7 6 6 5 5 4 4 1 3
7 7 6 6 6 7 5 6 5 5 5 5 5 5 5 6 6 6 6 6 6 7 8 7 7 8 10 11 9 10 8 10 8 8 8 8 8 8 5 5 3 3 2
8 8 7 6 6 6 6 6 5 5 6 5 5 5 5 5 6 7 7 7 7 7 9 8 9 11 11 11 13 9 11 13 11 6 8 8 8 8 6 6 4 5 4
Wind_Direction
205 208 215 212 218 217 218 222 218 234 236 222 223 230 230 228 221 221 248 263 222 234 253 248 241 265 272 258 251 264 272 267 281 303 251 131 299 327 1 78 169 86 74
204 207 209 215 221 219 220 223 226 210 213 225 233 233 231 225 227 220 234 255 236 239 235 243 247 246 223 251 269 268 298 317 284 280 347 298 196 263 62 358 74 99 102
205 206 212 214 220 229 222 225 223 226 229 224 214 226 234 232 236 231 233 240 245 239 245 243 247 250 248 273 283 287 239 232 273 298 288 251 250 121 158 148 174 129 119
206 210 214 217 219 224 225 225 225 225 230 231 234 239 233 235 225 220 222 230 239 241 248 248 251 256 257 250 260 261 261 258 239 260 275 240 216 195 181 176 165 165 154
217 223 221 223 225 224 223 221 224 223 223 224 227 223 229 235 232 228 232 239 243 242 235 246 243 284 57 342 265 251 257 237 236 263 265 160 231 217 166 157 176 143 128
249 242 240 233 232 228 227 218 218 221 219 225 232 236 233 237 113 125 264 246 239 242 246 232 224 162 134 118 124 71 35 248 222 225 292 322 349 249 164 234 177 198 193
240 241 236 233 235 235 227 226 224 225 226 224 232 233 234 239 142 139 238 255 255 239 241 241 227 209 212 155 125 117 85 79 20 246 234 249 57 0 357 263 20 9 47
254 246 235 243 235 240 238 223 209 238 230 225 233 240 242 250 135 149 256 252 248 254 242 215 220 208 210 182 161 79 57 38 355 92 99 94 82 16 337 71 78 101 133
229 257 244 250 261 253 244 226 192 200 205 229 222 237 235 218 149 206 236 240 239 229 217 219 212 195 147 206 153 120 97 93 64 76 95 98 68 41 20 254 184 249 218
216 232 199 129 247 234 236 181 172 142 129 124 276 310 44 268 99 260 223 226 210 199 199 165 38 44 162 194 162 147 134 147 137 137 125 97 66 77 40 29 346 301 299
212 119 200 204 206 201 202 191 171 153 133 145 140 76 21 5 359 44 174 246 241 205 158 137 72 41 104 106 176 168 138 110 105 123 88 81 53 51 44 35 28 9 9
165 191 155 86 87 100 89 77 44 89 105 112 127 98 61 56 56 60 83 93 93 118 114 85 59 61 53 59 72 87 83 87 96 100 100 95 115 102 89 66 59 61 58
83 79 78 71 64 68 93 82 79 94 117 117 70 118 99 94 60 84 100 97 100 103 96 104 98 87 84 70 73 91 106 101 103 117 109 99 73 92 119 118 101 113 95
94 91 87 82 81 70 58 80 90 96 97 98 71 73 94 121 124 125 107 91 95 101 115 93 90 94 94 108 81 68 81 71 78 132 137 138 129 148 142 150 158 172 141
90 93 89 90 84 85 67 42 66 40 35 108 91 73 21 100 66 18 65 129 130 112 122 128 125 115 104 101 118 132 135 130 130 137 144 170 148 147 149 153 134 143 97
93 86 83 88 91 97 99 86 51 58 73 63 51 58 75 72 54 50 113 112 122 131 79 79 78 93 96 128 140 137 112 135 106 121 129 160 145 155 144 119 101 95 107
97 104 103 105 128 118 112 113 111 62 72 67 78 99 97 140 134 127 127 122 120 64 73 109 135 144 160 152 97 102 108 118 252 137 153 160 149 118 214 138 113 142 114
104 98 100 107 106 96 120 133 145 144 150 141 78 101 124 148 142 135 135 142 153 189 171 148 154 115 119 89 120 101 104 118 40 92 288 85 151 135 140 114 66 26 80
133 121 127 119 124 118 134 137 139 149 136 127 121 136 92 94 113 116 192 187 195 149 148 165 159 159 156 152 142 141 161 158 159 169 177 149 125 133 121 98 82 24 313
108 50 57 127 152 144 162 154 155 153 162 163 168 166 158 161 160 177 193 213 205 172 210 159 178 156 177 170 171 167 155 166 158 172 156 140 134 140 139 159 144 111 37
140 145 356 172 151 137 141 139 145 153 162 172 176 137 60 225 174 179 185 188 211 191 174 173 161 163 163 170 170 176 177 171 170 160 171 161 167 159 175 135 132 136 198
194 180 184 196 162 173 171 167 178 163 165 171 158 127 144 236 211 200 203 206 191 197 173 173 178 182 179 185 187 192 186 180 178 179 170 173 176 165 174 191 194 210 214
220 216 195 217 222 135 193 214 199 196 197 197 182 155 186 217 205 201 193 205 183 190 175 187 188 190 180 196 195 195 196 191 186 182 180 176 184 185 195 195 199 209 231
212 222 220 210 211 219 208 211 212 220 267 207 203 194 196 201 210 193 215 195 196 196 195 201 197 202 188 206 190 200 197 191 182 183 190 183 193 173 200 191 195 185 280
223 215 218 216 205 216 217 242 220 225 217 237 226 215 218 217 227 219 208 210 207 212 206 208 209 207 207 208 210 205 154 134 206 171 194 194 195 187 204 208 208 232 272
233 221 225 218 211 219 214 206 212 216 220 219 224 231 238 242 238 236 232 229 232 224 231 213 217 218 204 206 214 181 144 163 195 228 211 201 206 209 213 228 219 267 271